Location: Mentone
(34.5413°N, 85.5351°W)
Time: 16:25:46
(UTC-05:00)

A-11 Canister half - Visible Passes

Search period start: 21 September 2017 00:00
Search period end: 01 October 2017 00:00
Orbit: 1526 x 1684 km, 47.3° (Epoch: 19 September)

Date Brightness Start Highest point End Pass type
(mag) Time Alt. Az. Time Alt. Az. Time Alt. Az.
27 Sep 11.1 05:55:27 10° SSE 06:01:25 19° SE 06:07:24 10° E visible
28 Sep 11.1 05:34:19 10° SSE 05:39:55 18° SE 05:45:30 10° E visible
29 Sep 11.1 05:13:15 10° SSE 05:18:24 16° ESE 05:23:32 10° E visible
30 Sep 11.1 04:52:15 10° SSE 04:56:53 15° ESE 05:01:31 10° E visible
